Weather History for CWSK - October, 2012

Change the Weather History Date:

Wednesday, October 10, 2012

  Actual Average Record
Temperature  
Mean Temperature 48 °F -  
Max Temperature 58 °F - - ()
Min Temperature 37 °F - - ()
Degree Days  
Heating Degree Days 18    
Moisture  
Dew Point 45 °F    
Average Humidity 87    
Maximum Humidity 100    
Minimum Humidity 62    
Precipitation  
Precipitation 0.00 in - - ()
Sea Level Pressure  
Sea Level Pressure 30.00 in    
Wind  
Wind Speed 2 mph ()    
Max Wind Speed 10 mph    
Max Gust Speed -    
T = Trace of Precipitation, MM = Missing Value Source: Averaged Metar Reports

Daily Weather History Graph

Daily Weather History Graph

Search for Another Location

Airport or City:

Trip Planner

Search our weather history database for the weather conditions in past years. The results will help you decide how hot, cold, wet, or windy it might be!

Date:

Astronomy

Oct. 10, 2012 Rise Set
Actual Time 7:27 AM PDT 6:30 PM PDT
Civil Twilight 6:55 AM PDT 7:02 PM PDT
Nautical Twilight 6:17 AM PDT 7:40 PM PDT
Astronomical Twilight 5:40 AM PDT 8:17 PM PDT
Moon 1:41 AM PDT (10/10) 4:00 PM PDT (10/10)
Length of Visible Light 12h 07m
Length of Day
11h 03m
Waning Crescent, 26% of the Moon is Illuminated
Oct 10
Waning Crescent
Oct 15
New
Oct 21
First Quarter
Oct 29
Full
Nov 6
Last Quarter

Hourly Weather History & Observations

Time (PDT) Temp. Dew Point Humidity Pressure Visibility Wind Dir Wind Speed Gust Speed Precip Events Conditions
12:00 AM 43.9 °F 43.5 °F 99% 30.04 in - Calm Calm - N/A   Unknown
1:00 AM 42.4 °F 42.3 °F 99% 30.03 in - Calm Calm - N/A   Unknown
2:00 AM 42 °F 42 °F 100% 30.02 in - NE 1.2 mph - -  
2:00 AM 42.3 °F 42.3 °F 100% 30.02 in - NE 1.2 mph - N/A   Unknown
3:00 AM 41.9 °F 41.9 °F 100% 30.02 in - NNE 2.3 mph - N/A   Unknown
4:00 AM 42.4 °F 42.4 °F 100% 30.02 in - North 1.2 mph - N/A   Unknown
5:00 AM 42 °F 41 °F 97% 30.01 in - North 1.2 mph - -  
5:00 AM 41.5 °F 41.4 °F 99% 30.01 in - North 1.2 mph - N/A   Unknown
6:00 AM 39.7 °F 39.6 °F 99% 30.01 in - ENE 2.3 mph - N/A   Unknown
7:00 AM 39.0 °F 39.0 °F 100% 30.01 in - NNE 2.3 mph - N/A   Unknown
8:00 AM 38 °F 38 °F 100% 30.02 in - NE 1.2 mph - -  
8:00 AM 38.5 °F 38.5 °F 100% 30.02 in - NE 1.2 mph - N/A   Unknown
9:00 AM 41.5 °F 41.5 °F 100% 30.03 in - Calm Calm - N/A   Unknown
10:00 AM 48.2 °F 47.7 °F 98% 30.02 in - NW 1.2 mph - N/A   Unknown
11:00 AM 53 °F 46 °F 69% 30.01 in - South 3.5 mph - -  
11:00 AM 53.1 °F 45.9 °F 77% 30.01 in - South 3.5 mph - N/A   Unknown
12:00 PM 55.9 °F 46.2 °F 70% 30.00 in - South 5.8 mph - N/A   Unknown
1:00 PM 55.9 °F 46.8 °F 71% 29.99 in - SSE 10.4 mph - N/A   Unknown
2:00 PM 57 °F 47 °F 62% 29.98 in - SSE 6.9 mph - -  
2:00 PM 57.4 °F 47.5 °F 70% 29.98 in - SSE 6.9 mph - N/A   Unknown
3:00 PM 56.8 °F 47.3 °F 70% 29.96 in - South 10.4 mph - N/A   Unknown
4:00 PM 56.5 °F 47.5 °F 72% 29.96 in - SSE 8.1 mph - N/A   Unknown
5:00 PM 53 °F 47 °F 74% 29.96 in - SSE 5.8 mph - -  
5:00 PM 53.4 °F 47.1 °F 79% 29.96 in - SSE 5.8 mph - N/A   Unknown
6:00 PM 52.0 °F 47.3 °F 84% 29.97 in - SE 3.5 mph - N/A   Unknown
7:00 PM 51.6 °F 47.5 °F 86% 29.98 in - SE 2.3 mph - N/A   Unknown
8:00 PM 51 °F 48 °F 84% 29.99 in - ESE 1.2 mph - -  
8:00 PM 51.4 °F 47.7 °F 87% 29.99 in - ESE 1.2 mph - N/A   Unknown
9:00 PM 50.7 °F 47.7 °F 89% 29.99 in - NNW 1.2 mph - N/A   Unknown
10:00 PM 51.4 °F 47.1 °F 85% 30.00 in - Calm Calm - N/A   Unknown
11:00 PM 51.1 °F 47.1 °F 86% 30.00 in - NNW 1.2 mph - N/A   Unknown